Weather History for McCook, NE

Change the Weather History Date:

Wednesday, January 8, 2014

  Actual Average Record
Temperature  
Mean Temperature 26 °F 27 °F  
Max Temperature 31 °F 40 °F 75 °F (2002)
Min Temperature 20 °F 14 °F -15 °F (1971)
Degree Days  
Heating Degree Days 40    
Moisture  
Dew Point 19 °F    
Average Humidity 77    
Maximum Humidity 88    
Minimum Humidity 66    
Precipitation  
Precipitation 0.00 in 0.02 in 0.01 in (1962)
Month to date precipitation 0.01 0.14  
Year to date precipitation 0.01 0.14  
Sea Level Pressure  
Sea Level Pressure 30.24 in    
Wind  
Wind Speed 10 mph (East)    
Max Wind Speed 16 mph    
Max Gust Speed -    
Visibility 10 miles    
Events      
T = Trace of Precipitation, MM = Missing Value Source: NWS Daily Summary

Daily Weather History Graph

Daily Weather History Graph

Search for Another Location

Airport:

Trip Planner

Search our weather history database for the weather conditions in past years. The results will help you decide how hot, cold, wet, or windy it might be!

Date:

Astronomy

Jan. 08, 2014 Rise Set
Actual Time 8:04 AM CST 5:33 PM CST
Civil Twilight 7:34 AM CST 6:04 PM CST
Nautical Twilight 7:00 AM CST 6:37 PM CST
Astronomical Twilight 6:27 AM CST 7:10 PM CST
Moon 12:27 PM CST (1/8) 1:11 AM CST (1/8)
Length of Visible Light 10h 29m
Length of Day
9h 29m
First Quarter, 56% of the Moon is Illuminated
Jan 8
First Quarter
Jan 15
Full
Jan 23
Last Quarter
Jan 30
New
Feb 6
First Quarter

Hourly Weather History & Observations

Time (CST) Temp. Windchill Dew Point Humidity Pressure Visibility Wind Dir Wind Speed Gust Speed Precip Events Conditions
12:53 AM 28.0 °F 16.1 °F 18.0 °F 66% 30.07 in 10.0 mi ENE 16.1 mph - N/A   Overcast
1:53 AM 26.1 °F 15.0 °F 17.1 °F 69% 30.13 in 10.0 mi ENE 12.7 mph - N/A   Overcast
2:53 AM 25.0 °F 13.6 °F 16.0 °F 69% 30.14 in 10.0 mi ENE 12.7 mph - N/A   Overcast
3:53 AM 25.0 °F 14.8 °F 17.1 °F 72% 30.16 in 10.0 mi ENE 10.4 mph - N/A   Overcast
4:53 AM 25.0 °F 16.3 °F 17.1 °F 72% 30.17 in 10.0 mi ENE 8.1 mph - N/A   Overcast
5:53 AM 25.0 °F 15.5 °F 17.1 °F 72% 30.17 in 10.0 mi East 9.2 mph - N/A   Overcast
6:53 AM 25.0 °F 17.1 °F 17.1 °F 72% 30.21 in 10.0 mi NE 6.9 mph - N/A   Overcast
7:53 AM 24.1 °F 16.0 °F 16.0 °F 71% 30.24 in 10.0 mi ENE 6.9 mph - N/A   Overcast
8:53 AM 24.1 °F 18.2 °F 17.1 °F 75% 30.29 in 10.0 mi East 4.6 mph - N/A   Overcast
9:53 AM 25.0 °F 16.3 °F 18.0 °F 75% 30.31 in 10.0 mi East 8.1 mph - N/A   Overcast
10:53 AM 26.1 °F 16.8 °F 19.0 °F 75% 30.32 in 10.0 mi East 9.2 mph - N/A   Overcast
11:42 AM 26.1 °F 18.4 °F 19.9 °F 78% 30.24 in 10.0 mi ESE 6.9 mph - N/A   Overcast
11:53 AM 27.0 °F 18.7 °F 19.9 °F 75% 30.31 in 10.0 mi East 8.1 mph - N/A   Overcast
12:20 PM 26.1 °F 18.4 °F 19.9 °F 78% 30.22 in 10.0 mi East 6.9 mph - N/A   Overcast
12:53 PM 27.0 °F 20.5 °F 19.9 °F 75% 30.29 in 10.0 mi East 5.8 mph - N/A   Overcast
1:18 PM 27.0 °F 19.5 °F 19.9 °F 75% 30.19 in 10.0 mi East 6.9 mph - N/A   Overcast
1:53 PM 27.0 °F 20.5 °F 19.9 °F 75% 30.27 in 10.0 mi ENE 5.8 mph - N/A   Overcast
2:53 PM 28.0 °F 21.7 °F 21.0 °F 75% 30.27 in 10.0 mi Variable 5.8 mph - N/A   Overcast
3:53 PM 28.0 °F 20.0 °F 21.0 °F 75% 30.27 in 10.0 mi ESE 8.1 mph - N/A   Overcast
4:53 PM 27.0 °F 17.3 °F 19.9 °F 75% 30.27 in 10.0 mi SE 10.4 mph - N/A   Mostly Cloudy
5:09 PM 26.1 °F 16.2 °F 19.9 °F 78% 30.18 in 10.0 mi SE 10.4 mph - N/A   Mostly Cloudy
5:53 PM 25.0 °F 16.3 °F 19.9 °F 81% 30.28 in 10.0 mi SE 8.1 mph - N/A   Overcast
6:49 PM 24.8 °F 15.3 °F 21.2 °F 86% 30.19 in 10.0 mi SE 9.2 mph - N/A   Overcast
6:53 PM 25.0 °F 15.5 °F 21.0 °F 85% 30.29 in 10.0 mi SE 9.2 mph - N/A   Overcast
7:53 PM 24.1 °F 16.0 °F 19.9 °F 84% 30.30 in 10.0 mi SE 6.9 mph - N/A   Overcast
8:53 PM 24.1 °F 14.4 °F 19.9 °F 84% 30.31 in 10.0 mi SE 9.2 mph - N/A   Overcast
9:53 PM 23.0 °F 12.4 °F 19.0 °F 85% 30.31 in 10.0 mi SE 10.4 mph - N/A   Overcast
10:53 PM 21.0 °F 8.6 °F 18.0 °F 88% 30.30 in 8.0 mi SSE 12.7 mph - N/A   Overcast
11:53 PM 21.0 °F 9.9 °F 18.0 °F 88% 30.29 in 6.0 mi SSE 10.4 mph - N/A   Overcast